Regional Weather Roundup
Issued by NWS Jackson, KY

Home | Current Version | Previous Version | Graphics & Text | Print | Product List | Glossary On
Versions: 1 2 3 4 5 6 7 8 9 10 11 12 13 14 15 16 17 18 19 20 21 22 23 24 25 26 27
000
ASUS43 KJKL 280510
RWRJKL

EAST KENTUCKY HOURLY WEATHER ROUNDUP
NATIONAL WEATHER SERVICE JACKSON KY
100 AM EDT SUN AUG 28 2016

NOTE: "FAIR" INDICATES FEW OR NO CLOUDS BELOW 12,000 FEET WITH
NO SIGNIFICANT WEATHER AND/OR OBSTRUCTIONS TO VISIBILITY.

* THESE REPORTS ARE NOT UNDER NWS QUALITY CONTROL AND MAY NOT
  REPORT WEATHER SUCH AS PRECIPITATION AND FOG.

KYZ079-080-083-085-087-088-110-112-115-119-120-280600
...EASTERN KENTUCKY...

CITY           SKY/WX    TMP DP  RH WIND       PRES   REMARKS
JACKSON        PTCLDY    77  66  68 CALM      30.17F
LONDON         CLOUDY    73  70  90 NE3       30.15F
SOMERSET*      CLOUDY    73  66  78 CALM      30.16R
MONTICELLO*    MOCLDY   N/A N/A N/A VRB6      30.15
WILLIAMSBURG*  CLOUDY    72  72 100 CALM      30.14F
MIDDLESBORO*   CLOUDY    68  68 100 CALM      30.19F
HARLAN APT*    CLOUDY    72  68  88 CALM      30.19F
PIKE CO APT*     N/A     78  72  82 S5        30.18F
BIG SANDY APT* CLOUDY    74  73  99 CALM      30.17S
MOREHEAD APT*  PTCLDY    75  68  78 CALM      30.17S
$$

KYZ035-036-041-042-044-050-067-078-099-280600
...CENTRAL KENTUCKY...

CITY           SKY/WX    TMP DP  RH WIND       PRES   REMARKS
MT STERLING*   MOCLDY    73  72  94 E3        30.17S
FLEMING/MASON* CLOUDY    72  70  94 CALM      30.17S
DANVILLE*      CLOUDY    72  70  94 N5        30.16F
LEXINGTON      CLOUDY    75  70  84 NE3       30.15F
FRANKFORT      CLOUDY    76  71  85 NE3       30.13F
LOUISVILLE     PTCLDY    80  71  74 SE3       30.13S
LEBANON*         N/A     73  72  94 CALM      30.15S
GLASGOW*       CLEAR     72  72 100 CALM      30.15S
BOWLING GREEN  PTCLDY    76  73  91 CALM      30.13S
$$

KYZ091>093-OHZ055-061-077-WVZ005-015-034-035-042-280600
...SOUTHERN OHIO/WEST VIRGINIA...

CITY           SKY/WX    TMP DP  RH WIND       PRES   REMARKS
COVINGTON      MOCLDY    75  73  93 CALM      30.16R
COLUMBUS       MOCLDY    71  70  96 CALM      30.15S
DAYTON         PTCLDY    73  70  90 S3        30.17S
WILMINGTON     PTCLDY    69  68  96 CALM      30.17R
HUNTINGTON     MOCLDY    77  70  79 CALM      30.14S
CHARLESTON     PTCLDY    74  72  93 CALM      30.15F
PINEVILLE*     CLOUDY    73  68  86 MISG      30.27F
BECKLEY        MOCLDY    75  66  73 S8        30.27F
BLUEFIELD      CLOUDY    74  67  78 VRB6      30.30F
LOGAN CO APT*    N/A     79  70  73 CALM      30.19R
$$

VAZ002-007-008-TNZ017-027-036-066-071-280600
...SOUTHWEST VIRGINIA/EAST TENNESSEE...

CITY           SKY/WX    TMP DP  RH WIND       PRES   REMARKS
WISE*          CLOUDY    70  59  68 SW5       30.28S
JONESVILLE*      N/A     73  70  88 CALM      30.21F
ABINGDON*      PTCLDY    76  72  87 CALM      30.24F
BRISTOL        CLOUDY    75  69  81 CALM      30.20F
MORRISTOWN*    PTCLDY    73  70  88 E3        30.17F
SEVIERVILLE*   CLEAR     70  70 100 CALM      30.16S
KNOXVILLE      MOCLDY    73  69  87 SE5       30.14F
OAK RIDGE      PTCLDY    75  70  84 CALM      30.16F
CROSSVILLE     CLEAR     72  69  90 CALM      30.20F
NASHVILLE      CLEAR     74  72  93 CALM      30.13S
$$

...KEY TO REMARKS...
VSB - VISIBILITY IN MILES
WCI - WIND CHILL INDEX
HX  - HEAT INDEX

$$




USA.gov is the U.S. government's official web portal to all federal, state and local government web resources and services.